Location: STAR School
(35.3054°N, 111.2976°W)
Time: 16:40:25
(UTC-07:00)

Vanguard 1 - Pass Details

Date: 29 October 2019
Orbit: 652 x 3831 km, 34.2° (Epoch: 20 November)

Event Time Altitude Azimuth Distance (km) Brightness Sun altitude
Rises 21:00:15 0° 280° (W) 4,027 14.0 -42.5°
Reaches altitude 10° 21:02:31 10° 277° (W) 3,327 13.4 -43.0°
Enters shadow 21:09:09 56° 237° (WSW) 2,074 11.6 -44.3°
